Wetbulb
56.66 56.58 57.04 57.31 57.45 56.89 55.77 54.01 53.93 54.69 53.65 53.66 55.55 57.31 57.13 56.48 55.43 55.60 56.33 57.07 56.73 56.62 56.74 56.40 56.28 56.90 56.10 55.59 55.71 55.81 54.98 54.61 52.11 53.30 52.69 52.26 51.35 52.09 52.03 51.83 52.31 51.68 51.84
56.52 56.43 56.32 57.12 57.78 57.41 56.90 56.60 55.27 53.93 53.93 53.80 53.63 55.52 56.62 56.78 56.27 55.48 54.95 55.81 56.43 56.38 56.43 56.18 55.86 56.57 55.61 56.24 55.59 54.91 54.88 54.87 53.20 51.40 53.19 49.98 49.14 50.83 53.16 51.31 51.39 51.32 51.12
55.85 55.83 55.93 56.30 56.51 56.63 57.01 57.33 56.69 55.82 54.87 54.19 54.02 53.50 54.46 56.26 56.59 56.56 56.12 55.65 55.74 56.53 56.86 56.27 56.09 55.91 55.19 55.42 55.29 54.81 54.67 54.67 54.63 53.57 52.95 53.63 51.13 44.29 45.88 45.87 47.80 49.65 49.88
56.68 55.65 55.18 55.35 56.37 56.37 56.73 56.92 57.38 57.35 56.59 55.79 55.06 54.50 54.10 54.07 55.33 56.43 56.43 55.93 55.66 55.82 56.63 56.87 56.78 56.08 55.55 55.24 54.88 54.85 54.96 54.24 53.98 53.56 53.79 54.14 51.69 46.70 45.42 46.41 47.00 46.90 48.33
57.08 56.51 56.05 56.24 56.47 56.49 56.35 56.51 57.09 57.04 57.32 57.30 56.63 56.27 55.47 54.89 54.42 54.19 54.83 55.01 55.40 55.57 56.08 56.43 57.05 55.71 51.69 53.45 55.35 55.23 55.10 54.43 54.06 53.47 53.45 53.69 49.70 40.55 43.64 48.79 47.09 48.94 45.00
49.91 49.41 56.02 57.58 57.44 56.81 56.29 56.17 56.17 56.43 56.75 56.77 56.86 56.65 56.26 56.04 50.16 46.12 50.63 54.66 54.70 54.46 54.82 56.04 56.72 50.07 49.71 45.60 45.76 47.09 52.18 53.83 53.03 53.34 53.34 52.45 53.26 49.36 49.85 48.93 45.63 37.62 38.27
45.09 45.78 47.44 48.60 52.41 56.79 57.67 56.95 55.98 55.62 56.29 56.41 56.69 56.87 56.30 56.60 48.18 45.85 44.42 54.14 54.99 54.87 54.46 54.43 54.40 54.73 49.35 53.82 44.93 41.84 36.85 36.14 37.61 48.64 53.20 53.65 52.30 51.74 49.98 38.91 36.52 35.97 33.97
40.85 41.90 43.96 45.43 48.04 48.18 49.19 52.32 56.99 57.04 56.59 56.01 56.07 56.37 56.46 56.70 48.00 45.06 43.69 52.37 54.13 54.80 55.00 54.86 55.04 54.79 53.84 52.52 44.59 35.39 32.98 32.71 33.61 35.56 36.31 32.75 33.70 34.86 37.42 36.72 34.22 32.22 31.57
38.09 39.09 40.93 42.47 42.83 43.34 44.39 45.71 47.12 47.88 55.78 57.14 57.20 56.87 56.34 56.56 48.87 45.56 45.54 53.71 54.10 54.26 54.63 49.45 49.47 53.07 49.68 44.65 38.60 32.19 30.22 30.24 33.08 33.35 33.29 33.34 33.55 34.07 34.94 34.47 32.02 31.62 28.37
36.48 37.23 37.68 37.58 37.50 38.48 40.38 41.09 43.44 44.17 45.52 53.26 57.54 57.28 53.34 56.40 45.51 42.96 45.57 54.95 54.04 51.37 36.88 35.77 36.92 41.61 39.14 39.25 38.80 32.39 28.10 28.17 29.55 29.12 29.04 29.61 30.18 30.29 30.76 30.78 30.96 28.89 27.37
35.85 35.00 33.58 33.44 33.57 35.29 35.21 38.07 40.72 41.18 40.94 41.00 39.52 36.00 36.45 36.12 36.89 39.73 42.42 49.90 48.21 35.40 33.22 31.81 32.89 34.53 34.88 34.67 34.07 32.08 29.21 29.30 28.64 28.25 27.64 26.80 26.73 26.85 27.18 27.61 27.76 27.67 26.02
32.91 31.84 30.88 30.51 31.06 31.78 32.28 32.87 36.09 36.80 35.76 33.95 32.11 31.16 31.66 31.86 33.56 35.11 35.44 34.99 36.18 34.07 31.79 31.43 31.92 32.69 32.51 31.93 31.03 31.08 30.28 29.12 28.18 26.64 25.43 24.85 24.64 25.04 26.14 26.84 27.22 26.94 26.77
29.58 28.57 29.13 28.86 28.99 29.87 29.50 29.66 31.04 33.18 32.02 30.91 30.00 28.41 27.94 28.84 29.32 31.50 32.02 32.58 31.92 31.24 31.06 30.67 30.43 29.79 29.02 28.21 29.12 28.55 27.67 26.52 25.05 23.39 22.60 22.72 23.74 24.49 25.13 25.04 25.17 24.78 24.85
27.19 26.75 27.12 26.75 26.99 27.69 28.62 29.05 28.83 28.99 29.07 28.98 27.74 26.18 26.22 26.83 27.74 27.82 27.88 27.76 27.54 26.52 25.74 25.74 25.57 25.34 24.31 23.53 23.76 23.85 23.05 22.95 22.04 21.00 20.65 21.73 22.86 21.28 20.60 21.81 20.21 20.44 19.57
26.51 25.85 25.68 25.54 25.54 25.33 26.26 27.46 28.26 29.22 29.33 27.42 27.36 27.50 26.21 25.69 27.37 28.77 27.45 26.56 26.48 25.87 25.38 24.91 22.98 21.61 20.20 19.94 20.36 20.88 20.87 20.64 19.46 19.73 18.96 18.50 18.06 18.09 17.35 18.30 17.28 16.64 15.02
24.19 23.74 22.81 22.78 22.47 23.13 23.67 23.49 26.44 27.99 29.55 29.92 29.77 28.83 28.55 29.63 29.67 29.39 28.91 28.26 27.61 26.24 22.75 20.50 19.56 18.85 17.73 17.97 17.82 17.32 17.66 17.35 17.75 17.49 16.63 16.24 15.01 14.78 14.33 14.31 14.55 13.03 11.17
23.86 23.42 22.90 22.51 21.94 21.41 20.96 20.42 19.26 22.84 24.94 26.62 27.16 27.82 28.01 27.59 27.38 26.91 26.05 25.50 24.59 22.37 18.02 17.64 16.88 17.04 16.88 17.45 16.96 15.70 14.89 15.93 15.93 14.09 13.13 12.75 12.78 12.87 12.48 11.45 11.11 11.07 10.51
21.31 21.31 20.90 20.39 20.03 19.60 19.96 20.91 20.33 18.96 17.76 17.91 21.92 23.53 24.68 24.75 24.70 24.42 23.57 21.16 17.44 18.04 17.22 16.01 15.37 15.54 15.77 15.37 14.56 13.53 13.07 12.82 12.23 11.58 10.08 9.48 10.32 10.22 9.40 9.04 9.08 7.27 8.20
22.50 20.64 19.25 19.35 19.25 19.55 20.14 19.72 19.21 18.57 17.68 17.03 17.42 17.97 18.36 21.15 20.66 20.67 20.43 16.49 14.95 14.50 14.45 13.53 13.81 13.00 12.43 12.16 11.15 10.76 9.90 8.84 7.94 6.67 6.30 5.70 3.98 7.44 6.82 7.23 7.14 6.29 6.24
19.41 20.87 19.47 18.93 17.97 17.34 18.58 18.20 17.32 16.82 15.78 14.82 14.14 14.47 15.36 14.27 11.79 11.21 12.02 12.32 12.41 12.26 11.86 11.04 10.52 10.45 10.56 9.96 8.57 8.19 6.96 5.51 6.31 5.95 2.05 -1.47 -5.28 5.01 4.33 3.97 3.19 2.96 5.13
18.60 17.53 16.81 18.82 18.85 18.48 17.24 16.26 16.18 15.01 13.88 13.45 13.00 13.80 13.68 11.84 10.09 9.62 9.72 9.39 9.51 9.42 9.34 8.52 7.83 7.79 7.89 6.52 6.84 3.57 2.89 2.43 1.72 1.05 0.11 0.63 -3.52 0.30 1.94 0.48 -0.16 2.99 4.22
16.07 16.71 16.43 15.72 15.94 16.04 15.49 15.06 14.30 13.95 13.43 12.21 11.83 11.43 10.76 9.57 9.36 9.17 7.96 7.11 7.85 8.49 8.27 6.75 6.29 5.95 5.17 4.22 3.54 1.52 -0.09 -3.22 -4.48 -5.41 -6.11 -6.94 -5.71 -5.48 -5.46 -4.90 -5.63 -7.79 -2.11
14.70 12.51 13.55 13.83 14.27 12.84 12.45 13.01 11.60 10.71 10.23 9.88 10.22 9.33 8.24 6.23 5.45 5.57 4.78 3.52 4.05 3.19 3.07 2.00 0.45 0.57 0.75 -1.24 -0.21 -1.16 -1.98 -4.52 -7.79 -11.27 -14.51 -14.50 -8.18 -9.96 -11.59 -10.68 -6.69 -7.96 -7.06
11.73 10.76 12.23 10.24 8.81 9.52 8.84 8.02 8.99 7.70 7.42 6.79 7.24 6.43 5.73 3.42 0.72 -1.47 -3.76 -4.60 -2.93 0.27 -1.01 -1.76 -0.59 -1.13 -2.44 -8.14 -7.96 -4.79 -3.32 -10.74 -8.21 -9.86 -15.58 -15.76 -10.68 -7.83 -12.32 -7.78 -5.79 -8.14 -7.42
8.04 7.02 7.06 6.54 4.40 1.69 1.84 3.75 2.38 0.44 2.04 2.26 2.73 0.79 0.47 1.87 -2.39 -7.31 -7.64 -5.50 -3.39 -4.90 -2.24 -4.30 -7.29 -9.25 -9.25 -10.91 -10.10 -10.19 -10.91 -9.60 -13.58 -11.59 -12.68 -12.31 -14.85 -15.94 -13.22 -9.23 -10.86 -6.40 -8.88
6.40 4.58 3.20 2.50 0.03 -1.26 -2.08 -2.35 -4.70 -7.25 -9.41 -10.32 -9.23 -10.50 -11.05 -5.61 -7.79 -15.40 -14.13 -9.13 -9.48 -8.45 -7.57 -6.73 -1.04 -5.06 -6.88 -5.27 -4.91 -8.00 -10.32 -9.87 -13.48 -12.56 -18.66 -11.61 -15.40 -15.40 -15.03 -14.31 -10.16 -9.60 -5.82
MSLP
1006.56 1007.03 1007.53 1008.04 1008.60 1009.30 1009.82 1010.18 1010.57 1011.09 1011.41 1011.71 1011.97 1012.19 1012.43 1012.80 1013.13 1013.53 1013.79 1014.11 1014.35 1014.57 1014.82 1015.10 1015.11 1015.36 1015.78 1016.12 1016.35 1016.47 1016.66 1016.91 1016.77 1016.41 1016.34 1016.13 1016.37 1016.29 1016.27 1016.28 1016.39 1016.46 1016.83
1006.22 1006.72 1007.06 1007.36 1007.83 1008.35 1008.85 1009.48 1010.02 1010.34 1010.69 1011.12 1011.53 1011.74 1011.75 1011.95 1012.33 1012.66 1012.96 1013.19 1013.57 1013.73 1013.89 1014.23 1014.13 1014.74 1014.98 1015.07 1015.44 1015.64 1015.68 1015.52 1015.87 1015.60 1015.51 1015.53 1015.51 1015.22 1015.16 1015.33 1015.18 1015.42 1015.46
1007.27 1007.20 1007.08 1007.23 1007.43 1007.47 1007.83 1008.43 1008.98 1009.57 1010.03 1010.34 1010.59 1010.75 1011.02 1011.28 1011.49 1011.66 1011.94 1012.22 1012.37 1012.52 1012.79 1012.96 1012.89 1013.68 1013.77 1013.98 1014.31 1014.49 1014.55 1014.59 1014.67 1014.64 1014.14 1014.15 1014.41 1014.67 1014.86 1014.89 1014.80 1014.89 1014.84
1006.26 1006.61 1006.89 1006.90 1006.81 1006.94 1007.18 1007.40 1007.70 1008.19 1008.70 1009.07 1009.40 1009.66 1009.96 1010.19 1010.37 1010.61 1010.86 1011.02 1011.13 1011.22 1011.46 1011.59 1011.79 1012.28 1012.34 1012.72 1013.14 1013.24 1013.37 1013.68 1013.64 1013.63 1013.39 1013.42 1013.90 1014.02 1014.31 1014.29 1014.45 1014.29 1014.10
1005.80 1006.05 1006.22 1006.63 1006.80 1006.90 1007.08 1007.24 1007.27 1007.28 1007.31 1007.79 1008.12 1008.39 1008.82 1009.12 1009.04 1009.31 1009.50 1009.67 1009.87 1010.06 1010.24 1010.25 1010.42 1010.53 1010.74 1011.14 1011.84 1012.07 1012.58 1012.78 1012.68 1012.55 1012.37 1012.30 1012.76 1013.57 1013.36 1013.19 1013.45 1013.28 1013.41
1007.20 1007.26 1006.47 1006.33 1006.18 1006.13 1006.31 1006.54 1006.75 1006.58 1006.61 1006.65 1006.64 1007.00 1007.38 1007.25 1007.29 1007.81 1008.28 1008.59 1008.76 1008.99 1008.91 1009.00 1009.28 1009.51 1009.61 1009.87 1010.32 1010.68 1011.09 1011.51 1011.72 1011.72 1011.38 1011.10 1010.95 1011.45 1011.84 1012.18 1012.67 1013.34 1013.92
1007.99 1007.79 1007.49 1007.17 1006.75 1006.00 1005.83 1005.87 1005.75 1005.73 1005.83 1005.89 1005.69 1005.63 1005.70 1005.82 1005.93 1006.23 1006.84 1007.33 1007.42 1007.49 1007.49 1007.73 1007.88 1007.86 1008.15 1008.69 1009.30 1009.92 1010.54 1010.84 1010.90 1010.93 1010.39 1010.09 1009.83 1009.89 1010.50 1011.42 1011.98 1012.58 1013.53
1009.38 1009.01 1008.43 1007.85 1007.36 1007.20 1006.66 1006.02 1005.30 1004.86 1004.73 1004.61 1004.53 1004.42 1004.60 1004.29 1004.11 1004.45 1005.22 1005.76 1005.79 1005.63 1005.87 1006.21 1006.32 1006.35 1006.64 1007.22 1008.46 1009.65 1010.57 1010.88 1010.75 1010.54 1010.43 1010.77 1010.65 1010.65 1010.68 1010.77 1011.85 1013.10 1014.23
1010.52 1010.18 1009.67 1009.09 1008.25 1007.53 1007.06 1006.64 1006.01 1005.38 1004.23 1003.37 1003.03 1003.23 1003.40 1002.97 1002.90 1003.65 1004.22 1004.57 1004.66 1004.58 1004.56 1004.86 1005.11 1005.13 1005.34 1006.31 1007.88 1009.24 1010.34 1011.05 1011.20 1010.88 1011.08 1011.28 1011.53 1011.21 1010.85 1011.03 1012.60 1013.19 1014.67
1010.92 1010.75 1010.48 1010.17 1009.58 1008.75 1007.99 1007.07 1006.14 1005.51 1004.56 1003.31 1002.22 1002.29 1002.35 1002.07 1002.35 1002.49 1002.79 1003.14 1003.45 1003.95 1005.05 1005.48 1005.06 1004.86 1005.00 1005.52 1006.31 1007.95 1009.58 1010.56 1010.80 1011.35 1011.58 1011.88 1012.02 1012.37 1012.43 1012.90 1012.42 1013.07 1014.23
1011.71 1011.50 1011.19 1010.94 1010.27 1009.40 1008.72 1007.80 1006.81 1005.68 1004.57 1003.34 1003.06 1003.51 1003.93 1004.01 1003.43 1002.83 1002.36 1002.22 1002.43 1003.68 1004.79 1005.66 1006.02 1005.64 1005.50 1006.04 1006.63 1007.57 1008.63 1010.10 1011.27 1012.20 1012.15 1012.74 1013.12 1013.65 1014.56 1013.83 1014.69 1013.37 1014.62
1012.56 1012.20 1011.74 1011.52 1010.91 1010.09 1009.31 1008.38 1007.35 1006.41 1005.65 1005.11 1004.86 1005.54 1005.78 1005.60 1005.11 1004.13 1003.09 1002.93 1003.59 1004.11 1005.46 1006.08 1007.01 1007.41 1007.84 1008.59 1008.65 1008.62 1009.59 1010.77 1011.76 1012.41 1012.80 1014.40 1014.71 1014.92 1015.83 1015.41 1015.82 1015.88 1016.20
1013.38 1013.14 1012.85 1012.54 1011.82 1010.97 1010.09 1009.24 1008.37 1007.47 1006.93 1006.63 1006.44 1006.68 1007.31 1007.58 1006.93 1006.30 1005.74 1005.08 1004.90 1005.77 1006.90 1009.24 1008.82 1007.88 1008.05 1009.18 1010.54 1011.06 1013.83 1011.44 1011.87 1013.28 1013.44 1014.49 1016.14 1016.17 1016.84 1015.53 1017.02 1016.98 1017.49
1013.97 1013.85 1013.63 1013.27 1012.89 1012.26 1011.37 1010.72 1010.10 1009.31 1008.57 1008.28 1008.23 1008.25 1008.65 1008.50 1008.80 1008.06 1008.23 1008.18 1007.34 1008.09 1008.62 1010.48 1009.15 1009.03 1012.78 1010.20 1011.63 1012.30 1012.45 1014.13 1015.50 1015.01 1015.86 1016.60 1016.79 1017.08 1017.17 1017.26 1017.60 1018.27 1018.18
1014.83 1014.80 1014.64 1014.44 1014.11 1013.70 1013.18 1012.60 1012.20 1011.63 1010.86 1010.18 1009.99 1009.95 1009.98 1009.85 1010.40 1009.89 1009.42 1009.54 1010.07 1009.53 1009.77 1011.06 1012.09 1011.41 1012.26 1014.35 1013.03 1014.43 1015.55 1015.49 1015.25 1016.71 1017.32 1018.39 1017.75 1017.34 1018.90 1019.05 1019.36 1020.01 1019.31
1015.65 1015.79 1015.72 1015.50 1015.22 1014.83 1014.53 1014.21 1014.20 1013.88 1013.15 1012.58 1012.04 1011.39 1011.76 1011.93 1011.90 1011.58 1011.41 1012.15 1010.34 1011.98 1011.86 1012.20 1013.89 1013.98 1014.63 1015.92 1016.36 1016.09 1016.65 1016.11 1017.40 1017.76 1018.40 1019.06 1019.53 1019.72 1020.27 1020.19 1020.56 1020.43 1019.97
1016.52 1016.66 1016.67 1016.46 1016.33 1016.13 1015.70 1015.15 1015.23 1015.84 1015.61 1015.18 1014.69 1014.00 1013.77 1013.83 1014.20 1013.87 1013.66 1013.05 1015.06 1013.36 1012.18 1015.65 1014.85 1016.81 1016.06 1017.47 1018.26 1017.62 1018.58 1018.78 1018.70 1019.35 1020.83 1020.48 1019.82 1020.64 1021.11 1021.03 1021.13 1021.28 1021.13
1017.86 1017.79 1017.80 1017.81 1017.50 1017.28 1017.12 1016.86 1015.84 1016.62 1017.52 1017.58 1017.52 1016.67 1016.13 1016.00 1015.57 1015.71 1015.95 1015.80 1016.42 1014.69 1016.48 1017.88 1017.50 1017.80 1018.69 1018.56 1019.33 1019.46 1019.86 1019.98 1020.70 1021.72 1021.56 1021.27 1021.09 1021.19 1021.62 1022.25 1022.46 1021.80 1021.44
1018.79 1018.78 1018.68 1018.63 1018.59 1018.53 1018.27 1018.01 1017.79 1017.82 1018.17 1018.92 1019.09 1018.85 1018.62 1018.37 1018.00 1017.72 1017.82 1017.68 1018.15 1018.81 1019.25 1019.32 1019.42 1019.42 1019.81 1020.13 1020.40 1021.11 1021.54 1022.67 1022.59 1022.21 1022.73 1022.26 1022.48 1022.11 1022.24 1022.55 1022.81 1022.85 1021.96
1019.84 1019.84 1019.70 1019.69 1019.48 1019.65 1019.80 1019.51 1019.29 1019.40 1019.64 1019.77 1019.95 1020.38 1020.24 1019.97 1020.00 1020.15 1020.31 1020.60 1020.72 1020.99 1020.67 1020.75 1020.98 1021.26 1021.40 1021.54 1021.63 1021.98 1022.65 1023.99 1023.57 1023.06 1023.02 1023.18 1023.14 1023.17 1023.25 1023.53 1023.35 1023.30 1022.52
1021.03 1020.89 1020.93 1020.71 1020.74 1020.75 1020.75 1020.66 1020.71 1021.00 1021.10 1021.22 1021.35 1021.60 1021.51 1021.40 1021.92 1022.05 1022.33 1022.43 1022.50 1022.39 1022.39 1022.48 1022.94 1022.94 1022.88 1022.63 1022.74 1023.37 1024.06 1024.74 1024.53 1024.54 1024.41 1024.10 1024.04 1023.89 1023.93 1024.26 1023.99 1023.44 1022.94
1022.07 1022.00 1022.06 1022.00 1021.95 1021.87 1021.88 1021.92 1022.05 1022.15 1022.35 1022.49 1022.68 1022.87 1023.03 1023.10 1023.29 1023.52 1023.79 1023.93 1023.88 1023.80 1023.77 1023.76 1023.93 1023.95 1024.08 1024.31 1024.39 1024.64 1025.12 1025.36 1025.29 1025.19 1024.92 1024.71 1024.84 1024.98 1024.80 1024.64 1024.56 1024.42 1024.01
1023.18 1023.22 1023.17 1023.12 1023.01 1023.03 1023.07 1023.20 1023.31 1023.48 1023.65 1023.77 1023.81 1024.06 1024.39 1024.68 1024.94 1025.12 1025.26 1025.23 1025.13 1025.05 1024.77 1024.87 1025.07 1025.22 1025.36 1025.31 1025.04 1025.02 1025.21 1025.69 1025.85 1026.10 1026.08 1025.88 1025.65 1025.47 1025.29 1025.60 1025.11 1024.85 1024.39
1024.32 1024.33 1024.32 1024.43 1024.36 1024.40 1024.51 1024.64 1024.75 1024.79 1024.84 1025.00 1025.12 1025.40 1025.60 1025.94 1026.27 1026.38 1026.34 1026.24 1025.92 1025.60 1025.62 1025.48 1025.42 1025.51 1025.54 1025.92 1025.94 1025.91 1026.18 1026.40 1026.25 1026.38 1026.57 1026.56 1025.87 1025.81 1025.74 1025.54 1025.20 1024.88 1024.73
1025.52 1025.54 1025.62 1025.69 1025.74 1025.87 1025.94 1026.12 1026.24 1026.27 1026.24 1026.33 1026.48 1026.62 1026.77 1026.97 1027.21 1027.32 1027.39 1026.99 1026.66 1026.67 1026.57 1026.58 1026.62 1026.57 1026.59 1026.68 1026.67 1026.74 1026.60 1026.43 1026.40 1026.04 1025.73 1025.89 1026.46 1026.26 1025.95 1025.89 1025.48 1024.87 1024.42
1026.78 1026.77 1026.77 1026.75 1026.95 1027.10 1027.42 1027.60 1027.80 1027.75 1027.92 1027.67 1027.56 1027.68 1027.75 1027.98 1028.22 1028.35 1028.28 1027.81 1027.81 1027.66 1027.43 1027.18 1026.81 1026.75 1026.74 1026.65 1026.52 1026.59 1026.68 1026.45 1026.10 1026.04 1026.27 1026.28 1026.48 1026.19 1025.97 1025.51 1025.24 1025.03 1024.61
Wind_Speed
14 13 14 14 14 13 12 12 12 11 10 8 9 11 12 12 11 10 10 10 12 13 11 11 13 13 9 8 8 8 9 8 11 10 6 7 7 11 8 8 9 9 8
13 13 13 14 15 13 14 13 13 13 12 14 11 10 12 13 14 14 15 15 14 15 14 13 15 9 12 12 9 12 11 12 10 17 12 7 10 9 11 10 10 7 9
6 9 11 13 14 16 16 14 14 14 14 13 15 16 15 14 15 15 16 17 17 17 16 16 17 15 15 12 13 12 11 10 11 12 14 8 7 3 4 4 5 7 6
11 11 12 14 15 14 14 15 16 16 16 17 17 17 18 19 19 18 18 18 19 18 18 19 18 18 19 17 14 15 14 12 12 12 13 13 8 4 4 6 8 7 10
2 11 13 12 12 12 13 15 15 17 17 17 17 18 18 18 16 20 20 20 20 20 19 19 20 21 22 20 12 15 14 13 13 13 13 13 8 4 8 8 10 8 6
13 12 7 11 13 14 14 14 15 17 18 18 19 19 20 16 21 21 21 18 20 20 20 19 18 16 19 19 20 22 17 16 17 14 14 16 17 11 11 10 8 4 5
13 13 13 12 11 9 13 15 17 19 16 19 20 19 23 22 23 23 23 19 18 18 20 18 17 15 15 16 16 12 8 3 1 12 19 19 16 11 11 6 5 4 3
12 14 14 14 11 11 11 9 14 17 18 19 20 21 21 20 24 23 23 21 20 22 20 19 20 20 17 17 9 7 6 5 1 2 3 3 3 3 3 4 4 8 6
14 14 15 14 15 15 13 12 11 11 14 19 20 21 21 22 23 20 18 18 19 21 20 12 11 16 16 17 13 12 10 10 14 21 21 19 17 14 10 11 7 8 2
16 15 14 14 13 13 14 15 14 13 14 15 17 17 17 19 8 14 18 15 18 13 3 1 5 8 11 21 15 15 13 12 11 10 10 13 15 17 19 11 4 5 5
14 13 13 14 14 13 13 11 12 12 9 10 6 9 10 13 8 12 11 12 10 7 4 3 5 11 14 14 12 9 12 13 12 10 10 9 9 10 8 9 8 7 4
12 12 13 14 12 10 12 11 10 9 7 8 10 10 10 12 20 16 16 18 11 9 9 9 11 22 23 23 17 27 23 14 9 9 10 8 7 8 6 7 8 8 7
10 11 11 12 14 13 13 14 10 9 7 7 8 9 9 10 11 25 24 23 24 17 13 21 26 30 29 24 28 26 18 9 10 10 10 9 7 7 6 8 7 8 6
11 12 10 11 14 16 11 11 10 9 8 8 8 9 7 8 7 8 10 12 20 18 20 13 20 21 21 17 15 16 13 9 9 10 9 7 7 7 9 7 6 4 4
11 10 10 9 10 11 15 16 13 16 13 9 9 8 8 10 10 16 11 9 9 13 15 11 11 13 13 9 12 12 9 9 11 8 8 7 7 8 7 6 6 4 5
11 8 8 8 8 8 8 11 30 32 31 31 28 18 14 25 26 27 28 22 26 16 13 12 10 10 11 8 8 9 8 11 8 8 7 6 6 6 5 5 5 4 4
11 9 7 8 8 8 8 9 10 15 29 34 33 31 30 27 27 26 26 29 21 18 15 9 11 8 9 8 7 9 8 7 9 8 5 5 6 6 5 5 5 4 3
8 12 8 7 7 7 7 8 9 10 10 11 21 23 28 28 27 25 22 18 11 16 11 8 9 9 7 9 7 8 7 7 7 5 5 5 5 5 5 5 4 4 4
8 7 6 7 7 8 7 9 9 9 9 8 8 12 16 24 26 27 23 11 11 10 8 9 8 8 7 8 8 7 7 5 4 5 4 6 4 5 5 5 4 5 5
8 10 7 5 6 7 7 7 8 8 9 8 8 8 8 9 11 11 11 10 9 8 8 9 8 8 7 6 6 5 6 3 4 5 5 5 4 4 5 4 5 3 4
5 7 8 6 6 6 6 7 8 7 8 8 9 9 13 9 9 9 8 8 8 7 7 7 6 6 6 6 7 6 6 4 5 4 3 3 3 4 5 3 3 4 5
5 5 6 6 6 7 7 7 7 7 7 7 7 9 12 8 7 8 8 7 6 6 5 6 6 6 6 5 4 4 4 3 3 4 4 4 4 3 3 3 3 3 3
6 5 6 6 6 7 7 7 7 7 7 7 7 7 7 6 6 6 6 5 5 4 4 5 4 4 4 3 4 4 5 4 2 1 3 3 3 2 3 1 2 2 2
7 7 7 6 6 7 7 6 7 8 7 6 6 5 5 6 5 5 4 4 4 5 5 4 5 6 5 5 4 4 3 2 2 1 3 1 2 3 2 2 2 3 2
5 5 6 5 6 4 5 6 6 5 5 5 5 4 4 5 5 4 4 4 5 5 5 4 3 3 5 5 3 3 3 4 2 3 3 3 2 3 2 2 2 3 3
6 6 5 4 4 4 4 4 4 4 4 3 3 3 3 4 3 3 3 4 3 3 4 3 4 3 1 1 0 2 2 3 3 4 1 1 1 2 2 3 5 2 4
Wind_Direction
182 182 185 191 194 198 204 204 204 205 201 203 198 207 211 209 204 211 214 211 212 220 217 209 218 217 217 220 223 225 226 220 241 253 226 219 225 231 229 216 217 208 220
185 186 194 191 196 199 202 205 205 210 205 209 211 212 215 217 216 216 221 224 223 225 223 223 228 219 228 228 223 229 231 232 236 249 246 230 219 227 233 219 218 215 213
225 212 201 203 204 204 204 201 199 207 215 214 216 220 221 221 222 222 223 225 230 228 225 226 229 223 231 228 229 231 231 236 235 243 255 247 224 199 220 247 216 232 231
197 207 216 218 216 216 214 209 207 209 212 215 218 224 226 228 227 225 223 225 230 233 230 231 233 224 227 226 225 229 235 235 235 240 249 253 227 203 207 222 235 225 238
205 210 219 223 227 227 225 226 224 217 216 219 222 224 225 228 230 229 230 232 235 237 236 235 234 229 227 226 221 232 235 237 241 244 249 251 228 190 211 225 236 239 226
20 17 340 237 224 225 228 228 228 228 226 222 224 224 226 227 226 219 223 229 232 235 237 235 235 228 230 225 220 231 230 231 239 243 249 249 248 222 224 225 220 157 239
12 4 2 356 359 276 239 226 228 231 230 229 231 226 232 231 225 217 211 226 230 231 234 236 237 235 227 230 223 214 110 81 8 256 251 249 259 245 214 181 165 147 140
14 2 354 345 349 344 335 324 255 235 227 228 230 229 233 234 229 209 207 221 228 231 229 231 232 232 224 215 179 124 106 52 263 171 127 105 85 39 46 89 104 101 87
13 3 354 351 340 336 329 325 311 306 272 233 230 230 227 234 234 215 208 224 233 235 235 229 225 229 222 176 155 139 123 105 92 98 91 82 73 77 115 123 127 132 95
1 357 357 351 341 329 328 318 311 301 289 276 241 237 241 240 236 226 209 223 230 227 165 263 237 217 179 169 162 153 142 143 133 106 92 73 65 60 50 36 53 105 109
354 357 3 358 344 339 327 319 313 315 323 345 30 37 26 13 358 333 249 209 206 158 132 85 43 88 109 112 115 129 125 124 107 89 80 79 70 60 53 56 39 64 95
9 8 7 5 359 352 344 338 337 342 12 36 53 40 31 28 22 31 60 66 59 94 103 102 85 85 81 76 78 107 105 100 92 90 85 67 55 65 63 65 55 55 53
27 25 23 20 15 9 8 0 355 12 27 39 53 58 45 30 38 44 58 72 88 87 93 72 76 85 84 76 70 67 15 66 93 88 86 87 49 62 45 70 59 70 74
40 35 31 31 31 29 29 25 18 14 29 44 51 61 57 57 40 48 55 65 76 75 87 67 86 81 44 83 72 69 82 67 46 62 63 57 70 57 51 35 55 28 70
47 42 37 35 35 38 41 36 37 36 38 47 52 54 55 60 53 69 73 73 74 75 96 72 66 64 71 41 65 68 62 65 65 62 57 39 57 68 55 44 47 37 54
53 41 36 38 35 40 40 47 41 40 43 48 51 61 60 63 65 66 66 66 76 80 69 79 73 64 80 66 67 78 66 64 69 73 73 76 63 57 63 55 44 39 47
58 47 44 46 43 40 43 53 52 31 42 44 47 52 58 62 58 63 70 68 60 67 73 51 77 74 75 71 63 70 67 65 65 67 58 53 66 60 52 61 52 53 33
45 48 49 41 40 42 38 47 63 58 35 29 32 45 52 52 56 56 54 58 49 54 62 57 63 61 56 69 67 67 64 61 68 71 65 56 59 72 71 50 33 33 22
48 42 40 44 42 42 45 53 53 59 63 49 29 28 31 46 51 49 48 52 54 54 59 62 58 65 65 64 62 64 68 57 72 80 58 59 41 58 53 48 36 21 23
36 36 46 44 49 47 43 53 57 59 60 59 54 38 37 42 41 40 39 42 50 51 53 54 52 51 56 67 68 70 68 48 51 59 57 49 26 47 53 37 26 8 12
34 40 28 40 51 57 57 58 61 60 61 59 56 49 51 60 54 49 47 44 44 48 54 58 53 48 48 48 59 62 64 50 45 46 41 53 40 41 29 21 11 16 11
30 44 46 52 49 54 58 58 57 62 61 63 61 55 53 55 56 59 55 46 44 51 54 61 59 56 51 51 68 83 82 71 48 40 37 34 35 29 12 10 4 1 337
37 42 46 46 53 55 56 55 58 58 58 57 61 60 57 58 57 57 53 45 41 43 44 63 67 59 53 48 57 66 66 47 41 65 50 20 20 22 26 328 298 316 346
43 41 51 53 46 52 53 52 56 54 53 51 58 58 62 66 58 48 31 16 34 37 36 45 42 40 47 48 41 46 60 37 26 85 139 124 24 9 356 331 319 322 301
40 47 52 52 54 46 48 53 48 40 43 46 55 46 46 70 51 36 29 30 35 40 28 20 21 66 90 95 82 60 28 51 51 23 26 35 35 357 346 308 328 321 324
46 41 42 47 50 56 61 67 63 60 52 27 51 51 58 61 49 36 24 35 28 18 5 3 43 99 166 192 132 106 71 22 353 346 75 42 33 347 347 328 322 308 295